Ottawa International, Ontario

1:02 PM EDT on April 25, 2017 (GMT -0400)
Ottawa-Macdonald-Cartier International

Weather History for CYOW - January, 2013

Change the Weather History Date:

Saturday, January 5, 2013

  Actual Average Record
Temperature  
Mean Temperature 15 °F -  
Max Temperature 22 °F 22 °F 50 °F (2007)
Min Temperature 8 °F 4 °F -13 °F (2016)
Degree Days  
Heating Degree Days 50    
Moisture  
Dew Point 12 °F    
Average Humidity 70    
Maximum Humidity 86    
Minimum Humidity 51    
Precipitation  
Precipitation 0.00 in 0.08 in - ()
Sea Level Pressure  
Sea Level Pressure 30.11 in    
Wind  
Wind Speed 10 mph ()    
Max Wind Speed 21 mph    
Max Gust Speed 29 mph    
Visibility 13.1 miles    
Events Snow    
Averages and records for this station are not official NWS values.
T = Trace of Precipitation, MM = Missing Value Source: Averaged Metar Reports

Daily Weather History Graph

Daily Weather History Graph

Search for Another Location

Airport or City:

Trip Planner

Search our weather history database for the weather conditions in past years. The results will help you decide how hot, cold, wet, or windy it might be!

Date:

Astronomy

Jan. 05, 2013 Rise Set
Actual Time 7:41 AM EST 4:34 PM EST
Civil Twilight 7:08 AM EST 5:08 PM EST
Nautical Twilight 6:31 AM EST 5:45 PM EST
Astronomical Twilight 5:55 AM EST 6:21 PM EST
Moon 12:35 AM EST (1/5) 11:32 AM EST (1/5)
Length of Visible Light 10h 00m
Length of Day
8h 52m
Last Quarter, 44% of the Moon is Illuminated
Jan 5
Last Quarter
Jan 11
New
Jan 18
First Quarter
Jan 26
Full
Feb 3
Last Quarter

Hourly Weather History & Observations

Time (EST) Temp. Windchill Dew Point Humidity Pressure Visibility Wind Dir Wind Speed Gust Speed Precip Events Conditions
12:00 AM 30.2 °F 19.3 °F 26.6 °F 86% 29.78 in 10.0 mi WSW 15.0 mph - N/A Snow Light Snow
1:00 AM 31 °F - 26 °F 75% 29.81 in 10 mi WSW 13.8 mph - - Snow Light Snow
1:00 AM 30.2 °F 19.8 °F 26.6 °F 86% 29.81 in 10.0 mi WSW 13.8 mph - N/A   Overcast
1:19 AM 30.2 °F 19.8 °F 26.6 °F 86% 29.84 in 1.5 mi WNW 13.8 mph - N/A Snow Light Snow
1:44 AM 28.4 °F 15.1 °F 23.0 °F 80% 29.86 in 10.0 mi WNW 20.7 mph 28.8 mph N/A   Mostly Cloudy
2:00 AM 28.4 °F 15.8 °F 23.0 °F 80% 29.88 in 10.0 mi WNW 18.4 mph 25.3 mph N/A   Mostly Cloudy
3:00 AM 26.6 °F 15.2 °F 17.6 °F 69% 29.95 in 12.0 mi WNW 13.8 mph 19.6 mph N/A   Partly Cloudy
4:00 AM 24.8 °F 12.9 °F 15.8 °F 69% 29.99 in 12.0 mi WNW 13.8 mph - N/A   Clear
5:00 AM 24.8 °F 14.6 °F 15.8 °F 69% 30.03 in 12.0 mi West 10.4 mph - N/A   Partly Cloudy
6:00 AM 23.0 °F 11.7 °F 14.0 °F 68% 30.08 in 12.0 mi WNW 11.5 mph 20.7 mph N/A   Partly Cloudy
7:00 AM 23 °F - 13 °F 54% 30.15 in 12 mi West 11.5 mph - -   Partly Cloudy
7:00 AM 23.0 °F 11.7 °F 14.0 °F 68% 30.14 in 12.0 mi West 11.5 mph - N/A   Mostly Cloudy
8:00 AM 17.6 °F 7.3 °F 12.2 °F 79% 30.20 in 15.0 mi WNW 8.1 mph - N/A   Scattered Clouds
9:00 AM 17.6 °F 8.2 °F 14.0 °F 86% 30.23 in 15.0 mi NW 6.9 mph - N/A   Scattered Clouds
10:00 AM 19.4 °F 7.9 °F 12.2 °F 74% 30.27 in 15.0 mi WNW 10.4 mph - N/A   Scattered Clouds
11:00 AM 19.4 °F 7.9 °F 12.2 °F 74% 30.30 in 15.0 mi North 10.4 mph - N/A   Mostly Cloudy
12:00 PM 19.4 °F 8.6 °F 10.4 °F 68% 30.28 in 15.0 mi WNW 9.2 mph - N/A   Partly Cloudy
1:00 PM 19.4 °F 7.9 °F 5.0 °F 54% 30.27 in 15.0 mi West 10.4 mph - N/A   Clear
2:00 PM 19.4 °F 11.5 °F 5.0 °F 54% 30.27 in 15.0 mi WNW 5.8 mph - N/A   Clear
3:00 PM 17.6 °F 12.3 °F 5.0 °F 58% 30.25 in 15.0 mi NW 3.5 mph - N/A   Clear
4:00 PM 15.8 °F 8.6 °F 3.2 °F 58% 30.27 in 15.0 mi SW 4.6 mph - N/A   Clear
5:00 PM 14.0 °F - 3.2 °F 62% 30.24 in 15.0 mi Variable 2.3 mph - N/A   Clear
6:00 PM 12.2 °F 2.9 °F 3.2 °F 67% 30.22 in 15.0 mi East 5.8 mph - N/A   Clear
7:00 PM 11 °F - 1 °F 51% 30.22 in 15 mi East 3.5 mph - -   Scattered Clouds
7:00 PM 10.4 °F 4.0 °F 1.4 °F 67% 30.22 in 15.0 mi East 3.5 mph - N/A   Scattered Clouds
8:00 PM 8.6 °F -1.3 °F 1.4 °F 73% 30.21 in 15.0 mi ENE 5.8 mph - N/A   Mostly Cloudy
9:00 PM 12.2 °F 2.9 °F 5.0 °F 73% 30.19 in 15.0 mi East 5.8 mph - N/A   Mostly Cloudy
10:00 PM 12.2 °F 1.7 °F 5.0 °F 73% 30.16 in 15.0 mi ENE 6.9 mph - N/A   Overcast
11:00 PM 14.0 °F 3.9 °F 5.0 °F 67% 30.15 in 15.0 mi East 6.9 mph - N/A   Overcast